Location: Bathurst
(33.4193°S, 149.5775°E)
Time: 00:15:44
(UTC+10:00)

A-11 Canister half - Pass Details

Date: 19 June 2021
Orbit: 1513 x 1687 km, 47.2° (Epoch: 28 July)

Event Time Altitude Azimuth Distance (km) Brightness Sun altitude
Rises 20:32:49 0° 242° (WSW) 4,771 12.2 -43.2°
Reaches altitude 10° 20:36:11 10° 234° (SW) 3,811 11.5 -43.9°
Enters shadow 20:41:47 32° 205° (SSW) 2,531 10.1 -45.1°
